Time,TemperatureF,DewpointF,PressureIn,WindDirection,WindDirectionDegrees,WindSpeedMPH,WindSpeedGustMPH,Humidity,HourlyPrecipIn,Conditions,Clouds,dailyrainin,SolarRadiationWatts/m^2,SoftwareType,DateUTC
2013-01-29 00:12:00,45.0,40.0,30.29,NNE,17,0.0,2.0,82,0.00,,,0.00,0,weatherlink.com 1.10,2013-01-29 08:12:00,
2013-01-29 00:27:00,44.7,40.0,30.30,NNE,17,0.0,1.0,82,0.00,,,0.00,0,weatherlink.com 1.10,2013-01-29 08:27:00,
2013-01-29 00:43:00,44.6,39.0,30.29,North,5,0.0,2.0,82,0.00,,,0.00,0,weatherlink.com 1.10,2013-01-29 08:43:00,
2013-01-29 00:57:00,44.7,39.0,30.29,NNE,19,0.0,1.0,81,0.00,,,0.00,0,weatherlink.com 1.10,2013-01-29 08:57:00,
2013-01-29 01:12:00,44.9,39.0,30.29,NNE,13,0.0,3.0,80,0.00,,,0.00,0,weatherlink.com 1.10,2013-01-29 09:12:00,
2013-01-29 01:28:00,44.8,39.0,30.29,NNE,33,0.0,2.0,80,0.00,,,0.00,0,weatherlink.com 1.10,2013-01-29 09:28:00,
2013-01-29 01:43:00,45.1,39.0,30.29,NNE,26,0.0,2.0,79,0.00,,,0.00,0,weatherlink.com 1.10,2013-01-29 09:43:00,
2013-01-29 01:57:00,45.1,39.0,30.30,NNE,24,0.0,2.0,79,0.00,,,0.00,0,weatherlink.com 1.10,2013-01-29 09:57:00,
2013-01-29 02:13:00,45.2,39.0,30.30,NNE,26,1.0,3.0,79,0.00,,,0.00,0,weatherlink.com 1.10,2013-01-29 10:13:00,
2013-01-29 02:28:00,45.1,39.0,30.31,North,360,0.0,2.0,79,0.00,,,0.00,0,weatherlink.com 1.10,2013-01-29 10:28:00,
2013-01-29 02:43:00,44.8,39.0,30.31,NNE,12,0.0,3.0,80,0.00,,,0.00,0,weatherlink.com 1.10,2013-01-29 10:43:00,
2013-01-29 02:58:00,44.8,39.0,30.30,North,5,0.0,3.0,80,0.00,,,0.00,0,weatherlink.com 1.10,2013-01-29 10:58:00,
2013-01-29 03:13:00,44.5,39.0,30.30,North,5,0.0,1.0,80,0.00,,,0.00,0,weatherlink.com 1.10,2013-01-29 11:13:00,
2013-01-29 03:28:00,43.9,38.0,30.31,North,5,0.0,2.0,81,0.00,,,0.00,0,weatherlink.com 1.10,2013-01-29 11:28:00,
2013-01-29 03:43:00,43.5,38.0,30.31,North,5,0.0,0.0,82,0.00,,,0.00,0,weatherlink.com 1.10,2013-01-29 11:43:00,
2013-01-29 03:58:00,42.9,38.0,30.31,North,5,0.0,1.0,83,0.00,,,0.00,0,weatherlink.com 1.10,2013-01-29 11:58:00,
2013-01-29 04:13:00,42.7,38.0,30.30,North,5,0.0,0.0,84,0.00,,,0.00,0,weatherlink.com 1.10,2013-01-29 12:13:00,
2013-01-29 04:28:00,42.6,38.0,30.30,North,5,0.0,1.0,83,0.00,,,0.00,0,weatherlink.com 1.10,2013-01-29 12:28:00,
2013-01-29 04:44:00,42.3,38.0,30.31,North,5,0.0,0.0,84,0.00,,,0.00,0,weatherlink.com 1.10,2013-01-29 12:44:00,
2013-01-29 04:59:00,42.0,38.0,30.32,North,5,0.0,1.0,85,0.00,,,0.00,0,weatherlink.com 1.10,2013-01-29 12:59:00,
2013-01-29 05:14:00,41.7,38.0,30.32,North,5,0.0,0.0,85,0.00,,,0.00,0,weatherlink.com 1.10,2013-01-29 13:14:00,
2013-01-29 05:29:00,41.5,38.0,30.32,North,5,0.0,1.0,86,0.00,,,0.00,0,weatherlink.com 1.10,2013-01-29 13:29:00,
2013-01-29 05:44:00,42.0,38.0,30.31,North,5,0.0,1.0,85,0.00,,,0.00,0,weatherlink.com 1.10,2013-01-29 13:44:00,
2013-01-29 05:59:00,42.0,38.0,30.32,NE,43,0.0,1.0,86,0.00,,,0.00,0,weatherlink.com 1.10,2013-01-29 13:59:00,
2013-01-29 06:14:00,42.1,38.0,30.32,NE,40,0.0,1.0,86,0.00,,,0.00,0,weatherlink.com 1.10,2013-01-29 14:14:00,
2013-01-29 06:29:00,42.3,38.0,30.33,NE,36,0.0,1.0,86,0.00,,,0.00,0,weatherlink.com 1.10,2013-01-29 14:29:00,
2013-01-29 06:44:00,42.5,38.0,30.33,ENE,65,0.0,1.0,85,0.00,,,0.00,0,weatherlink.com 1.10,2013-01-29 14:44:00,
2013-01-29 06:59:00,42.5,38.0,30.32,ENE,61,0.0,1.0,85,0.00,,,0.00,0,weatherlink.com 1.10,2013-01-29 14:59:00,
2013-01-29 07:14:00,42.1,38.0,30.34,ENE,61,0.0,1.0,86,0.00,,,0.00,0,weatherlink.com 1.10,2013-01-29 15:14:00,
2013-01-29 07:29:00,41.9,38.0,30.34,ENE,61,0.0,0.0,87,0.00,,,0.00,11,weatherlink.com 1.10,2013-01-29 15:29:00,
2013-01-29 07:44:00,41.7,38.0,30.34,ENE,61,0.0,0.0,87,0.00,,,0.00,28,weatherlink.com 1.10,2013-01-29 15:44:00,
2013-01-29 07:59:00,41.8,39.0,30.34,ENE,61,0.0,0.0,88,0.00,,,0.00,49,weatherlink.com 1.10,2013-01-29 15:59:00,
2013-01-29 08:14:00,42.2,39.0,30.34,ENE,61,0.0,0.0,88,0.00,,,0.00,69,weatherlink.com 1.10,2013-01-29 16:14:00,
2013-01-29 08:29:00,42.9,40.0,30.34,ENE,61,0.0,0.0,88,0.00,,,0.00,102,weatherlink.com 1.10,2013-01-29 16:29:00,
2013-01-29 08:44:00,44.3,40.0,30.35,ENE,61,0.0,1.0,86,0.00,,,0.00,153,weatherlink.com 1.10,2013-01-29 16:44:00,
2013-01-29 08:59:00,46.9,41.0,30.35,ENE,61,0.0,2.0,80,0.00,,,0.00,301,weatherlink.com 1.10,2013-01-29 16:59:00,
2013-01-29 09:14:00,49.7,42.0,30.35,North,9,1.0,2.0,76,0.00,,,0.00,322,weatherlink.com 1.10,2013-01-29 17:14:00,
2013-01-29 09:29:00,50.2,41.0,30.35,North,9,0.0,3.0,71,0.00,,,0.00,274,weatherlink.com 1.10,2013-01-29 17:29:00,
2013-01-29 09:44:00,50.8,41.0,30.35,North,5,0.0,5.0,70,0.00,,,0.00,429,weatherlink.com 1.10,2013-01-29 17:44:00,
2013-01-29 09:59:00,51.5,42.0,30.36,North,9,1.0,4.0,70,0.00,,,0.00,483,weatherlink.com 1.10,2013-01-29 17:59:00,
2013-01-29 10:14:00,52.4,41.0,30.36,NNE,13,1.0,5.0,65,0.00,,,0.00,499,weatherlink.com 1.10,2013-01-29 18:14:00,
2013-01-29 10:29:00,51.9,41.0,30.36,North,11,0.0,5.0,66,0.00,,,0.00,343,weatherlink.com 1.10,2013-01-29 18:29:00,
2013-01-29 10:44:00,52.4,41.0,30.36,North,5,0.0,4.0,65,0.00,,,0.00,478,weatherlink.com 1.10,2013-01-29 18:44:00,
2013-01-29 11:00:00,53.5,41.0,30.36,NNE,17,1.0,5.0,63,0.00,,,0.00,443,weatherlink.com 1.10,2013-01-29 19:00:00,
2013-01-29 11:15:00,53.3,41.0,30.36,North,5,1.0,5.0,63,0.00,,,0.00,432,weatherlink.com 1.10,2013-01-29 19:15:00,
2013-01-29 11:30:00,53.9,41.0,30.36,North,11,1.0,5.0,63,0.00,,,0.00,441,weatherlink.com 1.10,2013-01-29 19:30:00,
2013-01-29 11:45:00,55.1,41.0,30.36,North,360,1.0,4.0,60,0.00,,,0.00,578,weatherlink.com 1.10,2013-01-29 19:45:00,
2013-01-29 12:00:00,55.6,42.0,30.35,NNE,19,1.0,3.0,60,0.00,,,0.00,563,weatherlink.com 1.10,2013-01-29 20:00:00,
2013-01-29 12:15:00,56.4,42.0,30.34,NE,42,0.0,2.0,59,0.00,,,0.00,608,weatherlink.com 1.10,2013-01-29 20:15:00,
2013-01-29 12:30:00,57.7,41.0,30.32,North,5,1.0,4.0,54,0.00,,,0.00,622,weatherlink.com 1.10,2013-01-29 20:30:00,
2013-01-29 12:45:00,58.2,41.0,30.32,North,11,1.0,4.0,53,0.00,,,0.00,629,weatherlink.com 1.10,2013-01-29 20:45:00,
2013-01-29 13:00:00,58.6,41.0,30.32,NNE,22,0.0,3.0,53,0.00,,,0.00,640,weatherlink.com 1.10,2013-01-29 21:00:00,
2013-01-29 13:15:00,59.2,41.0,30.31,NNE,23,0.0,4.0,52,0.00,,,0.00,374,weatherlink.com 1.10,2013-01-29 21:15:00,
2013-01-29 13:30:00,60.4,40.0,30.30,North,11,0.0,3.0,47,0.00,,,0.00,555,weatherlink.com 1.10,2013-01-29 21:30:00,
2013-01-29 13:45:00,60.7,41.0,30.30,North,355,0.0,2.0,49,0.00,,,0.00,420,weatherlink.com 1.10,2013-01-29 21:45:00,
2013-01-29 14:00:00,61.7,42.0,30.29,North,355,0.0,2.0,48,0.00,,,0.00,534,weatherlink.com 1.10,2013-01-29 22:00:00,
2013-01-29 14:15:00,62.0,41.0,30.28,North,9,2.0,2.0,47,0.00,,,0.00,462,weatherlink.com 1.10,2013-01-29 22:15:00,
2013-01-29 14:30:00,62.3,42.0,30.28,South,182,0.0,3.0,48,0.00,,,0.00,441,weatherlink.com 1.10,2013-01-29 22:30:00,
2013-01-29 14:44:00,61.9,43.0,30.29,SE,128,3.0,4.0,50,0.00,,,0.00,362,weatherlink.com 1.10,2013-01-29 22:44:00,
2013-01-29 15:00:00,57.6,42.0,30.28,SSE,153,2.0,5.0,56,0.00,,,0.00,346,weatherlink.com 1.10,2013-01-29 23:00:00,
2013-01-29 15:15:00,57.9,43.0,30.28,South,182,2.0,3.0,57,0.00,,,0.00,359,weatherlink.com 1.10,2013-01-29 23:15:00,
2013-01-29 15:30:00,58.5,43.0,30.28,SSE,161,1.0,3.0,56,0.00,,,0.00,367,weatherlink.com 1.10,2013-01-29 23:30:00,
2013-01-29 15:45:00,58.8,43.0,30.27,SSW,207,0.0,3.0,57,0.00,,,0.00,218,weatherlink.com 1.10,2013-01-29 23:45:00,
2013-01-29 16:00:00,58.3,43.0,30.27,SSE,161,2.0,6.0,57,0.00,,,0.00,267,weatherlink.com 1.10,2013-01-30 00:00:00,
2013-01-29 16:15:00,57.5,43.0,30.27,SE,126,4.0,4.0,58,0.00,,,0.00,214,weatherlink.com 1.10,2013-01-30 00:15:00,
2013-01-29 16:30:00,57.1,43.0,30.28,SE,139,1.0,4.0,59,0.00,,,0.00,172,weatherlink.com 1.10,2013-01-30 00:30:00,
2013-01-29 16:45:00,57.4,43.0,30.27,SSE,154,0.0,3.0,59,0.00,,,0.00,111,weatherlink.com 1.10,2013-01-30 00:45:00,
2013-01-29 17:00:00,56.9,43.0,30.27,SE,142,3.0,4.0,60,0.00,,,0.00,56,weatherlink.com 1.10,2013-01-30 01:00:00,
2013-01-29 17:15:00,56.5,43.0,30.27,SSE,148,1.0,3.0,61,0.00,,,0.00,25,weatherlink.com 1.10,2013-01-30 01:15:00,
2013-01-29 17:30:00,55.9,44.0,30.27,SSE,148,0.0,1.0,64,0.00,,,0.00,5,weatherlink.com 1.10,2013-01-30 01:30:00,
2013-01-29 17:45:00,55.1,44.0,30.27,SSE,148,0.0,0.0,66,0.00,,,0.00,0,weatherlink.com 1.10,2013-01-30 01:45:00,
2013-01-29 18:00:00,53.5,44.0,30.28,SSE,148,0.0,0.0,69,0.00,,,0.00,0,weatherlink.com 1.10,2013-01-30 02:00:00,
2013-01-29 18:15:00,52.4,44.0,30.28,SSE,148,0.0,0.0,72,0.00,,,0.00,0,weatherlink.com 1.10,2013-01-30 02:15:00,
2013-01-29 18:30:00,51.5,43.0,30.29,SSE,148,0.0,1.0,73,0.00,,,0.00,0,weatherlink.com 1.10,2013-01-30 02:30:00,
2013-01-29 18:45:00,51.1,43.0,30.29,SSE,148,0.0,0.0,74,0.00,,,0.00,0,weatherlink.com 1.10,2013-01-30 02:45:00,
2013-01-29 19:00:00,50.6,43.0,30.29,SSE,148,0.0,1.0,75,0.00,,,0.00,0,weatherlink.com 1.10,2013-01-30 03:00:00,
2013-01-29 19:15:00,50.1,43.0,30.29,SSE,148,0.0,0.0,76,0.00,,,0.00,0,weatherlink.com 1.10,2013-01-30 03:15:00,
2013-01-29 19:30:00,49.6,43.0,30.29,SSE,148,0.0,1.0,77,0.00,,,0.00,0,weatherlink.com 1.10,2013-01-30 03:30:00,
2013-01-29 19:45:00,49.5,43.0,30.29,SSE,148,0.0,0.0,77,0.00,,,0.00,0,weatherlink.com 1.10,2013-01-30 03:45:00,
2013-01-29 20:00:00,49.4,42.0,30.29,SSE,148,0.0,0.0,77,0.00,,,0.00,0,weatherlink.com 1.10,2013-01-30 04:00:00,
2013-01-29 20:15:00,49.5,43.0,30.29,SSE,148,0.0,1.0,77,0.00,,,0.00,0,weatherlink.com 1.10,2013-01-30 04:15:00,
2013-01-29 20:30:00,49.9,43.0,30.30,SE,139,0.0,1.0,77,0.00,,,0.00,0,weatherlink.com 1.10,2013-01-30 04:30:00,
2013-01-29 20:45:00,50.7,43.0,30.30,ENE,66,0.0,2.0,75,0.00,,,0.00,0,weatherlink.com 1.10,2013-01-30 04:45:00,
2013-01-29 21:00:00,51.6,44.0,30.30,NE,46,0.0,4.0,74,0.00,,,0.00,0,weatherlink.com 1.10,2013-01-30 05:00:00,
2013-01-29 21:15:00,52.6,44.0,30.29,North,5,1.0,3.0,72,0.00,,,0.00,0,weatherlink.com 1.10,2013-01-30 05:15:00,
2013-01-29 21:30:00,52.7,44.0,30.29,NNE,18,0.0,2.0,72,0.00,,,0.00,0,weatherlink.com 1.10,2013-01-30 05:30:00,
2013-01-29 21:45:00,52.2,44.0,30.29,NE,41,0.0,2.0,73,0.00,,,0.00,0,weatherlink.com 1.10,2013-01-30 05:45:00,
2013-01-29 22:00:00,52.0,44.0,30.29,NE,56,0.0,4.0,73,0.00,,,0.00,0,weatherlink.com 1.10,2013-01-30 06:00:00,
2013-01-29 22:15:00,52.1,44.0,30.29,NNE,28,0.0,4.0,73,0.00,,,0.00,0,weatherlink.com 1.10,2013-01-30 06:15:00,
2013-01-29 22:30:00,51.7,44.0,30.29,NE,49,0.0,3.0,74,0.00,,,0.00,0,weatherlink.com 1.10,2013-01-30 06:30:00,
2013-01-29 22:45:00,51.3,44.0,30.30,North,11,1.0,3.0,75,0.00,,,0.00,0,weatherlink.com 1.10,2013-01-30 06:45:00,
2013-01-29 23:00:00,51.2,44.0,30.30,NE,52,1.0,2.0,75,0.00,,,0.00,0,weatherlink.com 1.10,2013-01-30 07:00:00,
2013-01-29 23:15:00,50.8,44.0,30.30,NNW,340,0.0,3.0,76,0.00,,,0.00,0,weatherlink.com 1.10,2013-01-30 07:15:00,
2013-01-29 23:30:00,50.4,43.0,30.30,ENE,59,0.0,2.0,76,0.00,,,0.00,0,weatherlink.com 1.10,2013-01-30 07:30:00,
2013-01-29 23:45:00,50.3,43.0,30.30,North,11,0.0,2.0,76,0.00,,,0.00,0,weatherlink.com 1.10,2013-01-30 07:45:00,